Crossville, TN

10:15 AM CST on February 25, 2017 (GMT -0600)
Crossville Memorial-Whitson

Weather History for KCSV - July, 2013

Change the Weather History Date:

Sunday, July 21, 2013

  Actual Average Record
Temperature  
Mean Temperature 76 °F 75 °F  
Max Temperature 82 °F 84 °F 96 °F (1993)
Min Temperature 70 °F 66 °F 54 °F (1971)
Degree Days  
Heating Degree Days 0    
Month to date heating degree days 0  
Since 1 June heating degree days 0  
Since 1 July heating degree days 0  
Cooling Degree Days 11    
Month to date cooling degree days 181  
Year to date cooling degree days 455  
Since 1 June cooling degree days 375  
Growing Degree Days 24 (Base 50)    
Moisture  
Dew Point 69 °F    
Average Humidity 83    
Maximum Humidity 97    
Minimum Humidity 69    
Precipitation  
Precipitation 1.11 in 0.16 in 2.29 in (1979)
Month to date precipitation 8.69 3.48  
Year to date precipitation 42.58 32.46  
Sea Level Pressure  
Sea Level Pressure 30.03 in    
Wind  
Wind Speed 2 mph (West)    
Max Wind Speed 16 mph    
Max Gust Speed 21 mph    
Visibility 6 miles    
Events Fog , Rain , Thunderstorm    
T = Trace of Precipitation, MM = Missing Value Source: NWS Daily Summary

Daily Weather History Graph

Daily Weather History Graph

Search for Another Location

Airport or City:

Trip Planner

Search our weather history database for the weather conditions in past years. The results will help you decide how hot, cold, wet, or windy it might be!

Date:

Astronomy

Jul. 21, 2013 Rise Set
Actual Time 5:39 AM CDT 7:53 PM CDT
Civil Twilight 5:10 AM CDT 8:22 PM CDT
Nautical Twilight 4:35 AM CDT 8:57 PM CDT
Astronomical Twilight 3:56 AM CDT 9:36 PM CDT
Moon 6:52 PM CDT (7/21) 4:23 AM CDT (7/21)
Length of Visible Light 15h 11m
Length of Day
14h 13m
Waxing Gibbous, 98% of the Moon is Illuminated
Jul 21
Waxing Gibbous
Jul 22
Full
Jul 29
Last Quarter
Aug 6
New
Aug 14
First Quarter

Hourly Weather History & Observations

Time (CDT) Temp. Heat Index Dew Point Humidity Pressure Visibility Wind Dir Wind Speed Gust Speed Precip Events Conditions
12:53 AM 72.0 °F - 69.1 °F 91% 29.99 in 10.0 mi West 4.6 mph - N/A   Partly Cloudy
1:53 AM 71.1 °F - 68.0 °F 90% 29.97 in 9.0 mi WSW 3.5 mph - N/A   Clear
2:53 AM 71.1 °F - 68.0 °F 90% 29.96 in 8.0 mi Calm Calm - N/A   Clear
3:53 AM 70.0 °F - 68.0 °F 93% 29.96 in 5.0 mi Calm Calm - N/A   Clear
4:53 AM 71.1 °F - 68.0 °F 90% 29.96 in 6.0 mi Variable 3.5 mph - N/A   Partly Cloudy
5:08 AM 71.6 °F - 68.0 °F 88% 30.04 in 6.0 mi Calm Calm - N/A   Mostly Cloudy
5:15 AM 71.6 °F - 68.0 °F 88% 30.04 in 6.0 mi Calm Calm - N/A   Scattered Clouds
5:28 AM 71.6 °F - 68.0 °F 88% 30.05 in 5.0 mi Calm Calm - N/A   Mostly Cloudy
5:53 AM 71.1 °F - 69.1 °F 93% 29.99 in 4.0 mi Calm Calm - N/A   Overcast
6:14 AM 71.6 °F - 69.8 °F 94% 30.06 in 5.0 mi Calm Calm - N/A   Overcast
6:34 AM 71.6 °F - 69.8 °F 94% 30.06 in 6.0 mi Calm Calm - N/A   Scattered Clouds
6:53 AM 72.0 °F - 69.1 °F 91% 30.00 in 6.0 mi Calm Calm - N/A   Scattered Clouds
7:00 AM 71.6 °F - 69.8 °F 94% 30.07 in 6.0 mi Calm Calm - N/A   Mostly Cloudy
7:11 AM 73.4 °F - 69.8 °F 88% 30.07 in 7.0 mi Calm Calm - N/A   Scattered Clouds
7:18 AM 73.4 °F - 69.8 °F 88% 30.08 in 8.0 mi Calm Calm - N/A   Mostly Cloudy
7:53 AM 73.9 °F - 69.1 °F 85% 30.01 in 8.0 mi Calm Calm - N/A   Overcast
8:53 AM 77.0 °F - 70.0 °F 79% 30.02 in 10.0 mi West 8.1 mph - 0.00 in   Overcast
9:53 AM 77.0 °F - 70.0 °F 79% 30.02 in 10.0 mi West 5.8 mph - N/A   Overcast
10:24 AM 78.8 °F - 71.6 °F 78% 30.08 in 10.0 mi West 6.9 mph - N/A   Mostly Cloudy
10:37 AM 80.6 °F 83.9 °F 69.8 °F 70% 30.08 in 10.0 mi West 8.1 mph - N/A   Scattered Clouds
10:53 AM 80.1 °F 83.2 °F 70.0 °F 71% 30.01 in 10.0 mi WSW 4.6 mph - N/A   Scattered Clouds
11:43 AM 80.6 °F 83.9 °F 69.8 °F 70% 30.06 in 10.0 mi Variable 3.5 mph - N/A   Mostly Cloudy
11:53 AM 79.0 °F - 70.0 °F 74% 30.00 in 10.0 mi Variable 4.6 mph - N/A   Mostly Cloudy
12:11 PM 78.8 °F - 71.6 °F 78% 30.07 in 4.0 mi Variable 5.8 mph - 0.02 in Rain , Thunderstorm Light Rain
12:13 PM 78.8 °F - 71.6 °F 78% 30.07 in 1.2 mi North 6.9 mph - 0.12 in Rain , Thunderstorm Rain
12:16 PM 75.2 °F - 69.8 °F 83% 30.06 in 0.5 mi SSE 6.9 mph - 0.21 in Rain , Thunderstorm Heavy Rain
12:28 PM 71.6 °F - 69.8 °F 94% 30.06 in 0.5 mi East 6.9 mph - 0.49 in Fog , Rain , Thunderstorm Rain
12:30 PM 71.6 °F - 69.8 °F 94% 30.06 in 1.2 mi East 4.6 mph - 0.50 in Rain , Thunderstorm Rain
12:33 PM 71.6 °F - 69.8 °F 94% 30.06 in 3.0 mi Variable 4.6 mph - 0.50 in Rain , Thunderstorm Rain
12:38 PM 71.6 °F - 69.8 °F 94% 30.08 in 1.8 mi NW 12.7 mph - 0.56 in Rain , Thunderstorm Heavy Rain
12:42 PM 71.6 °F - 68.0 °F 88% 30.08 in 0.5 mi WNW 16.1 mph 20.7 mph 0.76 in Fog , Rain , Thunderstorm Heavy Rain
12:53 PM 70.0 °F - 66.9 °F 90% 30.02 in 0.5 mi Calm Calm - 0.95 in Fog , Rain , Thunderstorm Heavy Thunderstorms and Rain
1:03 PM 69.8 °F - 66.2 °F 88% 30.07 in 1.0 mi Calm Calm - 0.08 in Rain , Thunderstorm Light Thunderstorms and Rain
1:05 PM 71.6 °F - 66.2 °F 83% 30.07 in 2.5 mi Variable 3.5 mph - 0.08 in Rain , Thunderstorm Light Thunderstorms and Rain
1:12 PM 71.6 °F - 66.2 °F 83% 30.07 in 10.0 mi Calm Calm - 0.08 in Thunderstorm Overcast
1:53 PM 72.0 °F - 66.9 °F 84% 30.01 in 10.0 mi Calm Calm - 0.08 in Rain , Thunderstorm Light Rain
1:57 PM 73.4 °F - 66.2 °F 78% 30.07 in 10.0 mi NNE 4.6 mph - N/A   Mostly Cloudy
2:41 PM 71.6 °F - 66.2 °F 83% 30.06 in 2.5 mi North 3.5 mph - 0.05 in Rain Rain
2:49 PM 71.6 °F - 68.0 °F 88% 30.05 in 1.5 mi Calm Calm - 0.08 in Rain Rain
2:53 PM 71.1 °F - 68.0 °F 90% 29.99 in 3.0 mi ESE 3.5 mph - 0.08 in Rain Light Rain
3:53 PM 73.0 °F - 69.1 °F 87% 29.97 in 10.0 mi Calm Calm - 0.00 in   Overcast
4:53 PM 75.0 °F - 69.1 °F 82% 29.95 in 10.0 mi SW 3.5 mph - N/A   Clear
5:53 PM 73.9 °F - 70.0 °F 87% 29.94 in 10.0 mi Variable 3.5 mph - N/A   Clear
6:53 PM 73.9 °F - 69.1 °F 85% 29.95 in 10.0 mi Calm Calm - N/A   Clear
7:53 PM 73.0 °F - 69.1 °F 87% 29.97 in 10.0 mi Calm Calm - N/A   Clear
8:53 PM 72.0 °F - 69.1 °F 91% 29.97 in 10.0 mi Calm Calm - N/A   Clear
9:53 PM 71.1 °F - 69.1 °F 93% 29.99 in 8.0 mi Calm Calm - N/A   Clear
10:53 PM 71.1 °F - 68.0 °F 90% 29.99 in 10.0 mi Variable 3.5 mph - N/A   Clear
11:53 PM 70.0 °F - 66.9 °F 90% 29.98 in 10.0 mi Calm Calm - N/A   Clear